Showing default

SOLRAD 7A, 730

Orbit data source: Space-Track

SOLRAD 7A, 730 is an American payload satellite in LEO that was launched on Sat, 11 Jan 1964 UTC via a THOR SLV-2A AGENA D launch vehicle from the Air Force Western Test Range (AFWTR). Payload-class satellites include a variety of spacecraft equipped with specific instruments for various scientific and technological missions. These include communications satellites like Starlink; space stations such as the ISS; scientific satellites like the Hubble; Earth observation satellites from companies like Planet Labs, Umbra, and HawkEye 360; GPS; miniature CubeSats for education and research; and military/defense satellites.

Loading next visibility...
Identifier
730, 1964-001D
Orbit
LEO
Last TLE update
12 hours ago
Origin
Manufacturer
NRL
Mission
Civil Astronomy
Bus & Motor
NRL 24", Unknown motor
Mass
40 kg wet, 40 kg dry
Launch date (UTC)
1964-01-11 (61 years ago)
Launch vehicle
THOR SLV-2A AGENA D
Launch site
Air Force Western Test Range (AFWTR)
Object type
Payload
Rocket body
Debris
Shape & HBR
Sphere, 0.6 m
Radar Cross Section
0.283 m², Medium (>0.1 m² and < 1m²)

Expand to show TLE details & history

TLE from 12 hours ago
0 SOLRAD 7A
1 00730U 64001D   25129.27243725  .00000050  00000-0  75611-4 0  9991
2 00730  69.9067  64.2927 0014725 202.1999 270.3774 13.95981272  4269
Epoch: 2025-05-09T06:32Z
Definitive object data (Epoch: 2025-05-09T06:32:18.578Z)
Latitude
60.36211°
Longitude
-120.8773°
Altitude
917.355 km
Speed
7.399 km/s
True Right ascension
13h 38m 07s
True Declination
60° 13' 02"
Sunlit
Object was in daylight at TLE epoch
Visualization TLE readout
Latitude
47.5695°
Longitude
121.29306°
Altitude
923.797 km
Speed
7.39 km/s
Apparent Right ascension
10h 05m 33s
Apparent Declination
17° 24' 07"
Sunlit
Object is in daylight
Visualization observer readout
Local Sidereal Time
02:27:55
Azimuth
60.96° ENE
Elevation
-6.348°
Doppler factor
1
Orbital elements
Apogee altitude
916.523 km
Perigee altitude
895.072 km
Semi-major axis
7,283.934 km
Eccentricity
0.0014725
Inclination
69.9067°
RAAN
64.2927°
Arg. of periapsis
202.1999°
True anomaly
270.20867°
Mean anomaly
270.3774°
Eccentric anomaly
270.29303°
Mean motion
3.49136 °/min
BSTAR
0.000075611
Orbital period
103.11 mins
Loading maneuver chart data...
Loading SW <> Apogee altitude chart data...
Loading historical data...
Loading historical data...
Loading historical data...
Loading historical data...
Loading historical data...
Loading historical data...
Loading historical data...
Other satellites on launch #1 in the year 1964 (1964-01-11 UTC)

SOLRAD 7A Visibility forecast

Observer location: undefined°, undefined°

Span
Click to sort rows by Start time (UTC) header in descending order
Start Az.
Max El. time (UTC)
Max El. Az.
Max El.
End time (UTC)
End Az.
8 mins2025-05-09 19:52:08.275Z150.341° SSE2025-05-09 19:56:08.275Z108.08° ESE20.845°2025-05-09 20:00:08.275Z59.674° ENE
10 mins2025-05-09 21:37:08.275Z225.553° WSW2025-05-09 21:42:08.275Z312.773° NW38.671°2025-05-09 21:47:08.275Z14.695° NNE
5 mins2025-05-10 04:55:08.275Z21.835° NNE2025-05-10 04:57:08.275Z44.096° NE15.288°2025-05-10 05:00:08.275Z76.873° E
10 mins2025-05-10 06:39:08.275Z335.801° NNW2025-05-10 06:44:08.275Z149.323° SSE44.678°2025-05-10 06:49:08.275Z156.559° SSE
|